Location: Unspecified
(0.0000°N, 0.0000°E)
Time: 22:55:54
(UTC+00:00)

NOSS 3-4 (A) - Pass Details

Date: 09 August 2024
Orbit: 801 x 1411 km, 63.4° (Epoch: 09 September)

Event Time Altitude Azimuth Distance (km) Brightness Sun altitude
Rises 19:47:32 0° 204° (SSW) 3,533 6.5 -24.5°
Reaches altitude 10° 19:50:09 10° 204° (SSW) 2,522 5.7 -25.2°
Maximum altitude 19:55:53 88° 292° (WNW) 823 3.0 -26.5°
Enters shadow 19:58:36 31° 21° (NNE) 1,388 4.2 -27.2°
Exits shadow 20:03:24 - 23° (NNE) 3,208 6.2 -28.3°
Sets 20:03:37 0° 23° (NNE) 3,295 6.2 -28.4°
